TimeEDT,TemperatureF,Dew PointF,Humidity,Sea Level PressureIn,VisibilityMPH,Wind Direction,Wind SpeedMPH,Gust SpeedMPH,PrecipitationIn,Events,Conditions,WindDirDegrees,DateUTC
12:53 AM,57.9,57.9,100,29.57,2.5,South,4.6,-,N/A,,Overcast,180,2012-10-16 04:53:00
1:03 AM,57.2,57.2,100,29.57,1.0,South,5.8,-,N/A,,Mist,180,2012-10-16 05:03:00
1:11 AM,57.2,57.2,100,29.58,0.8,South,4.6,-,N/A,,Mist,190,2012-10-16 05:11:00
1:21 AM,57.2,57.2,100,29.58,1.2,South,5.8,-,N/A,,Overcast,190,2012-10-16 05:21:00
1:33 AM,57.2,57.2,100,29.58,3.0,South,5.8,-,N/A,,Overcast,180,2012-10-16 05:33:00
1:53 AM,57.9,57.9,100,29.58,4.0,South,8.1,-,N/A,,Overcast,170,2012-10-16 05:53:00
2:08 AM,57.2,57.2,100,29.57,1.8,SSE,4.6,-,N/A,,Overcast,160,2012-10-16 06:08:00
2:18 AM,57.2,57.2,100,29.56,0.5,South,4.6,-,N/A,Fog,Fog,170,2012-10-16 06:18:00
2:33 AM,57.2,57.2,100,29.56,1.5,South,3.5,-,0.00,Rain,Light Rain,190,2012-10-16 06:33:00
2:39 AM,57.2,57.2,100,29.56,3.0,South,3.5,-,0.00,Rain,Light Rain,170,2012-10-16 06:39:00
2:53 AM,57.9,57.9,100,29.56,2.0,SW,3.5,-,0.00,,Overcast,230,2012-10-16 06:53:00
3:07 AM,57.2,57.2,100,29.54,3.0,Calm,Calm,-,N/A,,Overcast,0,2012-10-16 07:07:00
3:23 AM,57.2,57.2,100,29.55,2.0,Calm,Calm,-,N/A,,Overcast,0,2012-10-16 07:23:00
3:34 AM,57.2,57.2,100,29.54,0.8,Calm,Calm,-,0.00,Rain,Light Rain,0,2012-10-16 07:34:00
3:53 AM,57.9,57.9,100,29.53,2.0,NW,3.5,-,0.01,Rain,Light Rain,310,2012-10-16 07:53:00
3:58 AM,57.2,57.2,100,29.53,3.0,WNW,3.5,-,0.00,Rain,Light Rain,300,2012-10-16 07:58:00
4:05 AM,57.2,57.2,100,29.54,2.0,WNW,3.5,-,0.00,Rain,Light Rain,300,2012-10-16 08:05:00
4:24 AM,55.4,55.4,100,29.55,4.0,NNW,8.1,-,0.00,Rain,Light Rain,330,2012-10-16 08:24:00
4:32 AM,55.4,55.4,100,29.53,5.0,North,11.5,-,0.00,Rain,Light Rain,350,2012-10-16 08:32:00
4:46 AM,55.4,53.6,94,29.54,6.0,North,10.4,-,0.01,Rain,Light Rain,360,2012-10-16 08:46:00
4:53 AM,55.0,54.0,96,29.53,9.0,North,9.2,-,0.01,Rain,Light Rain,350,2012-10-16 08:53:00
5:53 AM,54.0,53.1,97,29.53,10.0,NNW,6.9,-,0.00,Rain,Light Rain,340,2012-10-16 09:53:00
6:01 AM,53.6,53.6,100,29.53,10.0,NNW,6.9,-,0.00,Rain,Light Rain,340,2012-10-16 10:01:00
6:14 AM,53.6,53.6,100,29.53,6.0,North,6.9,-,0.01,Rain,Light Rain,10,2012-10-16 10:14:00
6:53 AM,53.1,53.1,100,29.52,8.0,North,5.8,-,0.03,Rain,Light Rain,10,2012-10-16 10:53:00
7:07 AM,53.6,53.6,100,29.52,8.0,North,6.9,-,0.00,Rain,Light Rain,10,2012-10-16 11:07:00
7:53 AM,53.6,51.8,94,29.52,6.0,North,6.9,-,N/A,Rain,Light Rain,350,2012-10-16 11:53:00
8:30 AM,53.6,51.8,94,29.52,5.0,NNW,5.8,-,0.03,Rain,Light Rain,340,2012-10-16 12:30:00
8:53 AM,53.1,52.0,96,29.52,6.0,NNW,5.8,-,0.03,Rain,Light Rain,340,2012-10-16 12:53:00
9:23 AM,53.6,51.8,94,29.51,10.0,North,5.8,-,0.00,,Overcast,360,2012-10-16 13:23:00
9:48 AM,53.6,51.8,94,29.52,10.0,North,8.1,-,0.00,Rain,Light Rain,350,2012-10-16 13:48:00
9:53 AM,53.1,52.0,96,29.52,9.0,NNW,6.9,-,0.00,Rain,Light Rain,340,2012-10-16 13:53:00
10:14 AM,48.2,46.4,93,29.53,5.0,NW,13.8,-,0.03,Rain,Light Rain,320,2012-10-16 14:14:00
10:53 AM,48.0,45.0,89,29.54,6.0,NNW,10.4,-,0.05,Rain,Light Rain,330,2012-10-16 14:53:00
11:24 AM,48.2,44.6,87,29.55,10.0,NW,9.2,-,0.00,,Overcast,320,2012-10-16 15:24:00
11:53 AM,48.0,44.1,86,29.55,10.0,NNW,6.9,-,0.00,,Overcast,330,2012-10-16 15:53:00
12:53 PM,48.9,39.9,71,29.56,10.0,NW,11.5,17.3,N/A,,Overcast,310,2012-10-16 16:53:00
1:53 PM,48.9,39.9,71,29.56,10.0,NW,10.4,16.1,N/A,,Overcast,320,2012-10-16 17:53:00
2:53 PM,50.0,36.0,59,29.57,10.0,WNW,16.1,23.0,N/A,,Overcast,290,2012-10-16 18:53:00
3:53 PM,46.9,35.1,63,29.62,10.0,NW,9.2,25.3,N/A,,Overcast,310,2012-10-16 19:53:00
4:53 PM,46.9,34.0,61,29.66,10.0,NW,9.2,18.4,N/A,,Scattered Clouds,320,2012-10-16 20:53:00
5:53 PM,45.0,33.1,63,29.70,10.0,WNW,11.5,16.1,N/A,,Mostly Cloudy,290,2012-10-16 21:53:00
6:53 PM,44.1,34.0,68,29.73,10.0,NW,8.1,-,N/A,,Overcast,310,2012-10-16 22:53:00
7:53 PM,43.0,33.1,68,29.75,10.0,WNW,5.8,-,N/A,,Scattered Clouds,300,2012-10-16 23:53:00
8:53 PM,42.1,33.1,70,29.78,10.0,West,5.8,-,N/A,,Clear,270,2012-10-17 00:53:00
9:53 PM,43.0,30.9,62,29.81,10.0,West,8.1,-,N/A,,Clear,280,2012-10-17 01:53:00
10:53 PM,42.1,30.9,65,29.82,10.0,WNW,9.2,-,N/A,,Clear,290,2012-10-17 02:53:00
11:53 PM,42.1,30.0,62,29.82,10.0,West,5.8,-,N/A,,Clear,270,2012-10-17 03:53:00